Regional Weather Roundup
Issued by NWS

Home | Current Version | Previous Version | Text Only | Print | Product List | Glossary Off
Versions: 1 2 3 4 5 6 7 8 9 10 11 12 13 14 15 16 17 18 19 20 21 22 23 24 25 26 27 28 29 30 31 32 33 34 35 36 37 38 39 40 41 42 43 44 45 46 47 48 49 50

000
ASUS45 KABQ 230801
RWRNM
WEATHER ROUNDUP FOR NEW MEXICO
NATIONAL WEATHER SERVICE ALBUQUERQUE NM
200 AM MDT WED APR 23 2014

NOTE: "FAIR" MEANS FEW OR NO CLOUDS BELOW 12,000 FEET AGL WITH NO
       SIGNIFICANT WEATHER OR OBSTRUCTIONS TO VISION.

      THIS PRODUCT IS RELEASED AS TWO VERSIONS.  ONE VERSION NEAR
      THE TOP OF THE HOUR CONTAINING PRELIMINARY DATA FROM ALBUQUERQUE
      AND OTHER STATIONS.  A FINAL VERSION WITH ADDITIONAL DATA IS
      ISSUED ABOUT 10 MINUTES AFTER THE HOUR.

NMZ501-503-504-510>518-230900-
NORTHWEST PLATEAU/NORTHCENTRAL MOUNTAINS

CITY           SKY/WX    TMP DP  RH WIND       PRES   REMARKS
FARMINGTON     CLEAR     61  25  25 SW9       29.81F
SANTA FE       MOCLDY    56  30  37 SE6       29.88F
TAOS           CLOUDY    55  30  38 S6        29.93F

$$
NMZ402-403-502-505>509-230900-
WESTCENTRAL MOUNTAINS/SOUTHWEST MOUNTAINS

CITY           SKY/WX    TMP DP  RH WIND       PRES   REMARKS
GALLUP         CLOUDY    55  27  34 SW10      29.91F
SILVER CITY    MOCLDY    61  25  25 W16       29.94F

$$
NMZ407-409-411-412-230900-
SOUTHERN DESERTS

CITY           SKY/WX    TMP DP  RH WIND       PRES   REMARKS
DEMING         PTCLDY    64  25  22 W5        29.87S
HOLLOMAN AFB   CLEAR     71  39  30 S15       29.82S
T OR C         PTCLDY    66  26  22 SW6       29.85S

$$
NMZ519>523-230900-
CENTRAL VALLEYS/CENTRAL HIGHLANDS

CITY           SKY/WX    TMP DP  RH WIND       PRES   REMARKS
ALBUQUERQUE    MOCLDY    64  29  26 S7        29.85F
DOUBLE EAGLE   MOCLDY    55  26  32 SW8       29.87F
CLINES CORNERS CLOUDY    53  35  50 S14       29.94F
BELEN          FAIR      61  28  28 SW8       29.85S
SOCORRO        NOT AVBL

$$
NMZ524>526-539-540-230900-
SOUTHCENTRAL MOUNTAINS

CITY           SKY/WX    TMP DP  RH WIND       PRES   REMARKS
RUIDOSO        NOT AVBL

$$
NMZ527>531-230900-
NORTHEAST HIGHLANDS/NORTHEAST PLAINS

CITY           SKY/WX    TMP DP  RH WIND       PRES   REMARKS
LAS VEGAS      MOCLDY    49  39  68 SW10      29.92F
RATON          MOCLDY    52  41  66 SW10      29.86F
CLAYTON        CLEAR     54  40  59 S14       29.85F

$$
NMZ532>537-230900-
EASTCENTRAL PLAINS

CITY           SKY/WX    TMP DP  RH WIND       PRES   REMARKS
TUCUMCARI      PTCLDY    66  40  38 S22G30    29.83F
CANNON AFB     PTCLDY    62  40  44 S15       29.90F
CLOVIS AIRPORT PTCLDY    61  39  44 S16       29.93S

$$
NMZ028-029-538-230900-
SOUTHEAST PLAINS

CITY           SKY/WX    TMP DP  RH WIND       PRES   REMARKS
ROSWELL        CLOUDY    68  43  40 S16       29.85F
CARLSBAD       MOCLDY    70  43  37 W5        29.86R
HOBBS          CLEAR     64  41  42 SE15      29.90F


$$



USA.gov is the U.S. government's official web portal to all federal, state and local government web resources and services.